IT9FBN-3 Weather Reports


time (UTC)temp
C
wind
direction
speed
KPH
gust
KPH
rain 1hr
cm
rain 24hr
cm
rain mn
cm
humidity
%
barometer
mb
20260505070501 15 15 8.0 17.7 0.00 0.00 0.00 84 1019.2
20260505070001 15 26 8.0 16.1 0.00 0.00 0.00 84 1019.2
20260505065501 15 24 8.0 16.1 0.00 0.00 0.00 84 1019.4
20260505065002 15 20 8.0 16.1 0.00 0.00 0.00 84 1019.2
20260505064501 15 26 6.4 16.1 0.00 0.00 0.00 84 1019.1
20260505064002 15 18 4.8 9.7 0.00 0.00 0.00 84 1019.3
20260505063502 15 10 6.4 11.3 0.00 0.00 0.00 83 1019.2
20260505063002 14 10 6.4 12.9 0.00 0.00 0.00 83 1019.0
20260505062502 14 6 6.4 12.9 0.00 0.00 0.00 82 1018.8
20260505062001 14 2 6.4 12.9 0.00 0.00 0.00 82 1018.8
20260505061502 14 9 6.4 11.3 0.00 0.00 0.00 82 1018.9
20260505061001 14 6 4.8 11.3 0.00 0.00 0.00 83 1018.9
20260505060502 14 358 4.8 16.1 0.00 0.00 0.00 83 1018.8
20260505060001 14 356 6.4 16.1 0.00 0.00 0.00 83 1018.6
20260505055502 14 359 6.4 14.5 0.00 0.00 0.00 83 1018.7
20260505055002 14 23 4.8 8.0 0.00 0.00 0.00 83 1018.9
20260505054501 14 35 3.2 8.0 0.00 0.00 0.00 83 1018.8
20260505054002 14 30 1.6 8.0 0.00 0.00 0.00 83 1018.8
20260505053502 13 0 0.0 0.0 0.00 0.00 0.00 83 1018.7
20260505053001 13 340 0.0 1.6 0.00 0.00 0.00 83 1018.7
20260505052502 13 341 0.0 1.6 0.00 0.00 0.00 84 1018.6
20260505052001 13 341 1.6 3.2 0.00 0.00 0.00 85 1018.5
20260505051502 13 349 1.6 3.2 0.00 0.00 0.00 85 1018.4
20260505051002 12 16 1.6 4.8 0.00 0.00 0.00 85 1018.3
20260505050502 12 26 3.2 4.8 0.00 0.00 0.00 85 1018.5
20260505041502 12 25 0.0 4.8 0.00 0.00 0.00 84 1018.2
20260505041002 12 25 0.0 4.8 0.00 0.00 0.00 84 1018.2
20260505040501 12 25 0.0 4.8 0.00 0.00 0.00 84 1018.2
20260505040002 12 25 0.0 4.8 0.00 0.00 0.00 84 1018.2
20260505035502 12 25 0.0 4.8 0.00 0.00 0.00 84 1018.2
20260505035002 12 25 0.0 4.8 0.00 0.00 0.00 84 1018.2
20260505034502 12 25 0.0 4.8 0.00 0.00 0.00 84 1018.2
20260505034002 12 25 0.0 4.8 0.00 0.00 0.00 84 1018.2
20260505033501 12 25 0.0 4.8 0.00 0.00 0.00 84 1018.3
20260505033001 12 28 0.0 4.8 0.00 0.00 0.00 84 1018.2
20260505032502 12 33 1.6 4.8 0.00 0.00 0.00 84 1018.2
20260505032002 13 19 1.6 6.4 0.00 0.00 0.00 85 1018.3
20260505031502 13 357 3.2 8.0 0.00 0.00 0.00 85 1018.3
20260505031002 13 351 4.8 12.9 0.00 0.00 0.00 85 1018.1
20260505030502 13 351 6.4 12.9 0.00 0.00 0.00 85 1018.2
20260505030002 13 350 4.8 11.3 0.00 0.00 0.00 85 1018.1
20260505025502 12 353 4.8 12.9 0.00 0.00 0.00 85 1018.2
20260505025002 12 357 6.4 12.9 0.00 0.00 0.00 85 1018.3
20260505024502 12 358 8.0 12.9 0.00 0.00 0.00 84 1018.3
20260505024002 12 2 6.4 12.9 0.00 0.00 0.00 84 1018.2
20260505023502 13 4 6.4 12.9 0.00 0.00 0.00 84 1018.2
20260505023002 13 13 6.4 12.9 0.00 0.00 0.00 84 1018.3
20260505022502 13 26 4.8 11.3 0.00 0.00 0.00 84 1018.4
20260505022002 13 32 4.8 8.0 0.00 0.00 0.00 85 1018.4
20260505021502 13 26 4.8 9.7 0.00 0.00 0.00 85 1018.5
20260505021002 13 14 4.8 9.7 0.00 0.00 0.00 84 1018.4
20260505020502 13 4 6.4 9.7 0.00 0.00 0.00 84 1018.3
20260505020002 13 5 6.4 12.9 0.00 0.00 0.00 84 1018.3
20260505015502 13 5 4.8 12.9 0.00 0.00 0.00 84 1018.3
20260505015002 13 7 4.8 11.3 0.00 0.00 0.00 84 1018.3
20260505014502 13 7 4.8 14.5 0.00 0.00 0.00 85 1018.4
20260505014002 13 357 4.8 16.1 0.00 0.00 0.00 85 1018.4
20260505013502 13 351 8.0 16.1 0.00 0.00 0.00 85 1018.4
20260505013002 13 349 8.0 22.5 0.00 0.00 0.00 85 1018.5
20260505012502 13 351 8.0 22.5 0.00 0.00 0.00 84 1018.4
20260505012002 13 353 8.0 17.7 0.00 0.00 0.00 84 1018.4
20260505011502 13 3 8.0 16.1 0.00 0.00 0.00 84 1018.6
20260505011002 13 5 8.0 16.1 0.00 0.00 0.00 84 1018.7
20260505010502 13 5 8.0 16.1 0.00 0.00 0.00 84 1018.6
20260505010002 13 3 6.4 12.9 0.00 0.00 0.00 84 1018.5
20260505005502 13 356 8.0 16.1 0.00 0.00 0.00 85 1018.6
20260505005002 13 359 8.0 16.1 0.00 0.00 0.00 85 1018.6
20260505004502 13 1 6.4 14.5 0.00 0.00 0.00 85 1018.6
20260505004003 13 4 6.4 14.5 0.00 0.00 0.00 85 1018.7
20260505003502 13 10 6.4 12.9 0.00 0.00 0.00 85 1018.5
20260505003002 13 18 6.4 11.3 0.00 0.00 0.00 85 1018.7
20260505002502 13 23 4.8 9.7 0.00 0.00 0.00 85 1018.8
20260505002002 13 16 4.8 9.7 0.00 0.00 0.00 85 1018.8
20260505001502 13 16 4.8 9.7 0.00 0.00 0.00 85 1018.7
20260505001002 13 18 4.8 9.7 0.00 0.00 0.00 85 1018.9
20260505000502 13 12 4.8 9.7 0.00 0.00 0.00 85 1019.0
20260505000002 13 7 4.8 8.0 0.00 0.00 0.00 85 1019.0
20260504235502 13 356 4.8 9.7 0.00 0.00 0.00 85 1019.0
20260504235002 13 354 4.8 9.7 0.00 0.00 0.00 85 1019.1
20260504234502 13 4 4.8 12.9 0.00 0.00 0.00 85 1019.2
20260504234002 13 7 6.4 12.9 0.00 0.00 0.00 85 1019.3
20260504233502 13 14 4.8 9.7 0.00 0.00 0.00 85 1019.4
20260504233002 13 32 3.2 6.4 0.00 0.00 0.00 85 1019.5
20260504232502 13 30 3.2 6.4 0.00 0.00 0.00 85 1019.6
20260504232002 13 23 3.2 6.4 0.00 0.00 0.00 85 1019.8
20260504231502 13 14 3.2 9.7 0.00 0.00 0.00 85 1019.8
20260504231002 13 360 3.2 9.7 0.00 0.00 0.00 85 1019.7
20260504230502 13 360 3.2 6.4 0.00 0.00 0.00 85 1019.7
20260504230002 13 6 3.2 8.0 0.00 0.00 0.00 85 1019.8
20260504225502 13 6 3.2 9.7 0.00 0.00 0.00 85 1019.9
20260504225002 13 9 4.8 11.3 0.00 0.00 0.00 85 1020.0
20260504224502 13 5 6.4 11.3 0.00 0.00 0.00 84 1019.8
20260504224002 13 5 6.4 14.5 0.00 0.00 0.00 84 1019.9
20260504223502 13 11 6.4 14.5 0.00 0.00 0.00 84 1020.0
20260504223002 13 22 6.4 11.3 0.00 0.00 0.00 84 1020.1
20260504222502 13 35 4.8 9.7 0.00 0.00 0.00 84 1020.1
20260504222002 13 48 3.2 6.4 0.00 0.00 0.00 85 1020.1
20260504221502 13 38 3.2 8.0 0.00 0.00 0.00 85 1020.1
20260504221002 13 9 3.2 8.0 0.00 0.00 0.00 85 1020.0
20260504220502 13 7 3.2 11.3 0.00 0.00 0.00 85 1019.9
20260504220003 13 6 3.2 11.3 0.00 0.00 0.00 85 1019.8
20260504215502 13 358 4.8 9.7 0.00 0.00 0.00 85 1019.7
20260504215002 13 358 4.8 9.7 0.00 0.00 0.00 85 1019.8
20260504214502 13 357 4.8 8.0 0.00 0.00 0.00 85 1019.9
20260504214002 13 355 4.8 9.7 0.00 0.00 0.00 85 1020.0
20260504213502 13 360 4.8 9.7 0.00 0.00 0.00 85 1020.0
20260504213002 13 359 4.8 11.3 0.00 0.00 0.00 85 1020.0
20260504212502 13 353 6.4 14.5 0.00 0.00 0.00 85 1020.1
20260504212002 13 352 6.4 14.5 0.00 0.00 0.00 85 1020.2
20260504211502 13 352 6.4 14.5 0.00 0.00 0.00 85 1020.0
20260504211002 13 351 8.0 14.5 0.00 0.00 0.00 85 1020.1
20260504210502 13 350 8.0 14.5 0.00 0.00 0.00 85 1020.1
20260504210002 13 349 8.0 14.5 0.00 0.00 0.00 85 1020.2
20260504205502 13 353 6.4 12.9 0.00 0.00 0.00 85 1020.3
20260504205002 13 4 4.8 12.9 0.00 0.00 0.00 85 1020.4
20260504204502 14 354 4.8 16.1 0.00 0.00 0.00 85 1020.4
20260504204002 14 350 6.4 16.1 0.00 0.00 0.00 85 1020.5
20260504203502 14 358 6.4 16.1 0.00 0.00 0.00 85 1020.6
20260504203002 14 2 6.4 16.1 0.00 0.00 0.00 85 1020.6
20260504202502 14 358 8.0 14.5 0.00 0.00 0.00 85 1020.6
20260504202002 14 358 8.0 14.5 0.00 0.00 0.00 85 1020.6
20260504201502 14 358 6.4 14.5 0.00 0.00 0.00 85 1020.6
20260504201002 13 356 6.4 12.9 0.00 0.00 0.00 85 1020.5
20260504200502 13 5 4.8 11.3 0.00 0.00 0.00 85 1020.6
20260504200002 13 6 4.8 12.9 0.00 0.00 0.00 85 1020.5
20260504195502 13 359 6.4 16.1 0.00 0.00 0.00 85 1020.6
20260504195002 14 359 8.0 16.1 0.00 0.00 0.00 85 1020.4
20260504194502 14 356 6.4 14.5 0.00 0.00 0.00 85 1020.4
20260504194002 14 354 8.0 14.5 0.00 0.00 0.00 85 1020.3
20260504193502 14 357 9.7 17.7 0.00 0.00 0.00 84 1020.2
20260504193002 14 360 8.0 17.7 0.00 0.00 0.00 84 1020.2
20260504192502 14 358 8.0 20.9 0.00 0.00 0.00 85 1020.2
20260504192002 14 356 9.7 20.9 0.00 0.00 0.00 85 1020.2
20260504191502 14 359 9.7 17.7 0.00 0.00 0.00 85 1020.1
20260504191002 14 1 9.7 19.3 0.00 0.00 0.00 84 1020.0
20260504190502 14 5 9.7 20.9 0.00 0.00 0.00 84 1020.1
20260504190002 14 14 6.4 20.9 0.00 0.00 0.00 84 1020.2
20260504185502 14 37 4.8 11.3 0.00 0.00 0.00 84 1020.3
20260504185002 14 42 3.2 9.7 0.00 0.00 0.00 83 1020.1
20260504184502 15 9 4.8 11.3 0.00 0.00 0.00 83 1020.2
20260504184002 15 2 6.4 11.3 0.00 0.00 0.00 83 1019.9
20260504183502 15 4 6.4 12.9 0.00 0.00 0.00 83 1019.8
20260504183002 15 358 8.0 16.1 0.00 0.00 0.00 82 1019.7
20260504182502 15 357 6.4 16.1 0.00 0.00 0.00 82 1019.6
20260504182002 15 351 8.0 17.7 0.00 0.00 0.00 82 1019.7
20260504181502 15 350 8.0 17.7 0.00 0.00 0.00 82 1019.7
20260504181002 15 355 6.4 14.5 0.00 0.00 0.00 82 1019.8
20260504180502 15 2 8.0 16.1 0.00 0.00 0.00 81 1019.8
20260504180002 15 3 9.7 19.3 0.00 0.00 0.00 82 1019.9
20260504175503 15 1 9.7 19.3 0.00 0.00 0.00 81 1019.9
20260504175002 15 7 8.0 17.7 0.00 0.00 0.00 81 1020.0
20260504174503 15 8 8.0 17.7 0.00 0.00 0.00 81 1019.8
20260504174002 15 9 8.0 17.7 0.00 0.00 0.00 81 1019.9
20260504173502 15 12 8.0 17.7 0.00 0.00 0.00 80 1019.7
20260504173002 15 11 9.7 17.7 0.00 0.00 0.00 80 1019.9
20260504172502 15 10 8.0 17.7 0.00 0.00 0.00 80 1019.8
20260504172002 15 15 8.0 17.7 0.00 0.00 0.00 80 1019.7
20260504171502 15 11 8.0 17.7 0.00 0.00 0.00 79 1019.7
20260504171003 15 10 9.7 20.9 0.00 0.00 0.00 79 1019.6
20260504170502 15 6 11.3 20.9 0.00 0.00 0.00 79 1019.5
20260504151002 17 9 17.7 37.0 0.00 0.00 0.00 70 1019.6
20260504150503 17 7 17.7 37.0 0.00 0.00 0.00 71 1019.6
20260504141003 18 12 20.9 37.0 0.00 0.00 0.00 68 1020.0
20260504140503 18 12 17.7 37.0 0.00 0.00 0.00 67 1020.0
20260504130503 18 15 19.3 35.4 0.00 0.00 0.00 69 1020.5
20260504110503 18 359 14.5 29.0 0.00 0.00 0.00 61 1020.8
20260504100503 18 360 16.1 29.0 0.00 0.00 0.00 59 1021.8
20260504082003 16 352 16.1 35.4 0.00 0.00 0.00 69 1021.8
20260504081503 16 353 17.7 35.4 0.00 0.00 0.00 69 1021.7
20260504081001 16 356 19.3 35.4 0.00 0.00 0.00 69 1021.5
20260504080501 16 354 17.7 30.6 0.00 0.00 0.00 71 1021.5